Track CELESTIS 16 (OTB) now! 10-day predictions CELESTIS 16 (OTB) is classified as:
1 44341U 19036C 23087.65222070 .00001596 00000-0 32591-3 0 9993 2 44341 23.9968 209.9533 0011972 67.3788 292.7969 14.53480276199806